#timestamp,LO_Frequency,Hit,StdDev 
1543197615.6,286046999.1,N
1543197635.4,286046999.3,N
1543197655.2,286046998.8,Y
1543197675.1,286046998.6,P
1543197676.0,286046998.6,P
1543197695.8,286047001.2,P
1543197715.7,286047001.2,N
1543197735.5,286047000.6,N
1543197755.3,286046999.7,N
1543197775.2,286047000.1,N
1543197795.0,286047002.6,N
1543197795.9,286047002.6,N
1543197815.8,286047001.7,N
1543197835.6,286047002.0,N
1543197855.4,286047001.0,N
1543197875.3,286046999.4,N
1543197895.1,286046999.5,N
1543197915.9,286046998.3,N
1543197935.7,286047000.5,N
1543197955.5,286046999.7,N
1543197975.4,286047002.6,N
1543197995.2,286047002.5,N
1543198015.0,286047000.1,N
1543198015.9,286047000.1,N
1543198035.8,286046999.8,N
1543198055.6,286047000.3,N
1543198075.5,286047000.6,N
1543198095.3,286047000.2,N
1543198115.1,286047000.2,N
1543198135.9,286046999.9,N
1543198155.7,286046998.7,N
1543198175.6,286046998.4,N
1543198195.4,286046998.6,N
1543198215.2,286046999.4,N
1543198235.1,286047000.9,N
1543198236.0,286047000.9,N
1543198255.8,286047001.2,N
1543198275.6,286046998.7,N
1543198295.5,286046999.6,N
1543198315.3,286046996.8,N
1543198335.2,286046997.3,N
1543198355.9,286046997.4,N
1543198375.7,286046997.1,N
1543198395.6,286046998.0,N
1543198415.4,286046997.7,N
1543198435.3,286046997.4,N
1543198455.1,286046997.6,N
1543198456.0,286046997.6,N
1543198475.8,286046999.3,N
1543198495.7,286046999.4,N
1543198515.5,286046998.7,N
1543198535.4,286046997.1,N
1543198555.2,286046997.3,N
1543198575.0,286046995.3,Y
1543198575.9,286046995.3,P
1543198595.8,286046997.6,N
1543198615.6,286046997.8,N
1543198635.5,286046997.1,N
1543198655.3,286046997.0,N
1543198675.1,286046999.6,N
1543198695.9,286046996.9,N
1543198715.7,286046996.8,N
1543198735.6,286046994.9,Y
1543198755.4,286046998.8,P
1543198775.2,286046998.6,N
1543198795.1,286047000.7,N
1543198796.0,286047000.7,N
1543198815.8,286047002.8,N
1543198835.6,286047000.9,N
1543198855.5,286047002.4,N
1543198875.3,286047002.8,N
1543198895.2,286047000.6,N
1543198915.9,286046998.2,N
1543198935.7,286046995.1,N
1543198955.6,286046995.2,N
1543198975.4,286046996.2,N
1543198995.2,286046996.2,N
1543199015.1,286046995.5,N
1543199016.0,286046995.5,N
1543199035.8,286046997.5,N
1543199055.7,286046997.2,N
1543199075.5,286046998.5,N
1543199095.3,286046998.2,N
1543199115.2,286047000.3,N
1543199135.9,286047000.7,N
1543199155.7,286046999.9,N
1543199175.6,286047000.2,N
1543199195.4,286046998.1,N
1543199215.2,286046998.2,N
1543199235.1,286047000.5,N
1543199236.0,286047000.5,N
1543199255.8,286046999.7,N
1543199275.7,286047001.2,N
1543199295.5,286046997.1,N
1543199315.3,286046996.5,N
1543199335.2,286046994.9,N
1543199355.0,286046993.7,N
1543199355.9,286046993.7,N
1543199375.8,286046996.3,N
1543199395.6,286046995.7,N
1543199415.4,286046995.1,N
1543199435.3,286046997.5,N
1543199455.1,286046995.8,N
1543199456.0,286046995.8,N
1543199475.8,286046993.6,N
1543199495.7,286046993.3,Y
1543199515.5,286046996.9,P
1543199535.4,286046997.2,P
1543199555.2,286046998.0,P
1543199575.0,286046998.0,Y
1543199575.9,286046998.0,P
1543199595.8,286047001.0,P
1543199615.6,286047002.6,N
1543199635.4,286047001.9,N
1543199655.3,286047001.8,N
1543199675.1,286047002.4,N
1543199695.9,286047000.4,N
1543199715.7,286047002.7,N
1543199735.5,286047002.1,N
1543199755.4,286047002.4,N
1543199775.2,286047001.1,N
1543199795.0,286046998.5,N
1543199796.0,286046998.5,N
1543199815.8,286047000.4,N
1543199835.6,286047000.1,N
1543199855.6,286046998.6,N
1543199875.4,286046999.0,N
1543199895.2,286046998.3,N
1543199915.1,286046998.4,N
1543199916.0,286046998.4,N
1543199935.8,286046998.7,N
1543199955.7,286046998.4,N
1543199975.5,286046998.3,N
1543199995.3,286046999.2,N
1543200015.2,286046998.7,N
1543200035.9,286046998.7,N
1543200055.1,286046998.7,N
1543200056.0,286046998.7,N
1543200075.8,286046999.1,N
1543200095.7,286046998.9,N
1543200115.5,286046998.9,N
1543200135.3,286046997.0,N
1543200155.2,286046999.6,N
1543200175.0,286046999.0,N
1543200175.9,286046999.0,N
1543200195.7,286046996.9,N
1543200215.6,286046999.5,N
1543200235.4,286046999.3,N
1543200255.3,286046998.7,N
1543200275.1,286046998.6,N
1543200295.8,286046998.6,N
1543200315.7,286046999.3,N
1543200335.5,286046998.2,N
1543200355.4,286047000.8,N
1543200375.2,286047000.8,N
1543200395.0,286046999.5,N
1543200395.9,286046999.5,N
1543200415.8,286046998.3,N
1543200435.6,286046998.8,N
1543200455.5,286047000.9,N
1543200475.3,286046999.8,N
1543200495.1,286047002.0,N
1543200515.9,286047002.2,N
1543200535.7,286047000.6,N
1543200555.6,286047001.1,N
1543200575.4,286047002.5,N
1543200595.2,286047000.9,N
1543200615.1,286047000.6,N
1543200616.0,286047000.6,N
1543200635.8,286047000.5,N
1543200655.7,286046998.6,N
1543200675.5,286046998.4,N
1543200695.5,286046998.4,N
1543200715.3,286046998.1,N
1543200735.1,286047000.3,N
1543200755.9,286047000.0,N
1543200775.7,286047000.7,N
1543200795.6,286047001.1,N
1543200815.4,286047000.9,N
1543200835.2,286047000.6,N
1543200855.1,286047000.7,N
1543200856.0,286047000.7,N
1543200875.8,286047002.0,N
1543200895.6,286047002.1,N
1543200915.5,286047002.4,N
1543200935.3,286047003.9,Y
1543200955.2,286047001.9,P
1543200975.9,286047001.7,N
1543200995.7,286047001.3,N
1543201015.6,286047002.2,Y
1543201035.4,286047000.2,P
1543201055.2,286047002.7,P
1543201075.1,286047000.1,N
1543201076.0,286047000.1,N
1543201095.8,286047000.6,N
1543201115.7,286047001.1,N
1543201135.5,286046998.7,N
1543201155.3,286046998.4,N
1543201175.2,286047000.7,N
1543201195.0,286046999.8,N
1543201195.9,286046999.8,N
